User: anonymous   Login
Location: Ferma
(41.9500°N, 44.5167°E)
Time: 18:52:10
(UTC+00:00)
Language:

COSMOS 2428 - Orbit

View from above orbital plane
View from above orbital plane
View from above satellite
View from above satellite

Ground track
Ground track

The orbit data is extracted from the following two-line orbital elements,

1 31792U 07029A   22017.43656383  .00000307  00000-0  19218-3 0  9994
2 31792  70.9285 136.6110 0010687 275.7134  84.2768 14.12442351750604
Epoch (UTC): 17 January 2022 10:28:39
Eccentricity: 0.0010687
inclination: 70.9285°
perigee height: 843 km
apogee height: 859 km
right ascension of ascending node: 136.6110°
argument of perigee: 275.7134°
revolutions per day: 14.12442351
mean anomaly at epoch: 84.2768°
orbit number at epoch: 75060

The dashed part of the orbit path shows where the satellite is in the earth's shadow,  

DLR